Weather History for KTEX - October, 2012

Change the Weather History Date:

Wednesday, October 10, 2012

  Actual Average Record
Temperature  
Mean Temperature 50 °F -  
Max Temperature 64 °F 53 °F 66 °F (1996)
Min Temperature 37 °F 33 °F 26 °F (2001)
Degree Days  
Heating Degree Days 14    
Moisture  
Dew Point 23 °F    
Average Humidity 35    
Maximum Humidity 56    
Minimum Humidity 19    
Precipitation  
Precipitation 0.00 in - - ()
Sea Level Pressure  
Sea Level Pressure 30.30 in    
Wind  
Wind Speed 5 mph (SSE)    
Max Wind Speed 13 mph    
Max Gust Speed 20 mph    
Visibility 10 miles    
Events      
Averages and records for this station are not official NWS values.
T = Trace of Precipitation, MM = Missing Value Source: NWS Daily Summary

Daily Weather History Graph

Daily Weather History Graph

Search for Another Location

Airport or City:

Trip Planner

Search our weather history database for the weather conditions in past years. The results will help you decide how hot, cold, wet, or windy it might be!

Date:

Astronomy

Oct. 10, 2012 Rise Set
Actual Time 7:15 AM MDT 6:40 PM MDT
Civil Twilight 6:49 AM MDT 7:06 PM MDT
Nautical Twilight 6:19 AM MDT 7:37 PM MDT
Astronomical Twilight 5:48 AM MDT 8:07 PM MDT
Moon 2:00 AM MDT (10/10) 3:40 PM MDT (10/10)
Length of Visible Light 12h 17m
Length of Day
11h 24m
Waning Crescent, 26% of the Moon is Illuminated
Oct 10
Waning Crescent
Oct 15
New
Oct 21
First Quarter
Oct 29
Full
Nov 6
Last Quarter

Hourly Weather History & Observations

Time (MDT) Temp. Windchill Dew Point Humidity Pressure Visibility Wind Dir Wind Speed Gust Speed Precip Events Conditions
12:15 AM 41.0 °F 37.1 °F 19.4 °F 42% 30.32 in 10.0 mi ESE 5.8 mph - N/A   Clear
12:35 AM 42.8 °F 39.3 °F 19.4 °F 39% 30.32 in 10.0 mi SSE 5.8 mph - N/A   Clear
12:55 AM 41.0 °F 38.0 °F 19.4 °F 42% 30.32 in 10.0 mi ESE 4.6 mph - N/A   Clear
1:15 AM 41.0 °F 35.8 °F 19.4 °F 42% 30.32 in 10.0 mi ESE 8.1 mph - N/A   Clear
1:35 AM 41.0 °F 37.1 °F 21.2 °F 45% 30.33 in 10.0 mi ESE 5.8 mph - N/A   Clear
1:55 AM 41.0 °F - 21.2 °F 45% 30.33 in 10.0 mi Calm Calm - N/A   Clear
2:15 AM 41.0 °F 37.1 °F 21.2 °F 45% 30.33 in 10.0 mi ESE 5.8 mph - N/A   Clear
2:35 AM 39.2 °F 37.0 °F 21.2 °F 49% 30.33 in 10.0 mi SSE 3.5 mph - N/A   Clear
2:55 AM 41.0 °F 38.0 °F 21.2 °F 45% 30.33 in 10.0 mi SE 4.6 mph - N/A   Clear
3:15 AM 39.2 °F 34.2 °F 21.2 °F 49% 30.32 in 10.0 mi SE 6.9 mph - N/A   Clear
3:35 AM 39.2 °F 35.0 °F 23.0 °F 52% 30.32 in 10.0 mi East 5.8 mph - N/A   Clear
3:55 AM 41.0 °F 38.0 °F 23.0 °F 49% 30.32 in 10.0 mi East 4.6 mph - N/A   Clear
4:15 AM 41.0 °F 37.1 °F 21.2 °F 45% 30.32 in 10.0 mi ESE 5.8 mph - N/A   Clear
4:35 AM 41.0 °F 37.1 °F 23.0 °F 49% 30.32 in 10.0 mi ESE 5.8 mph - N/A   Clear
4:55 AM 37.4 °F 32.8 °F 23.0 °F 56% 30.32 in 10.0 mi East 5.8 mph - N/A   Clear
5:15 AM 39.2 °F 37.0 °F 23.0 °F 52% 30.32 in 10.0 mi SE 3.5 mph - N/A   Clear
5:35 AM 41.0 °F 37.1 °F 23.0 °F 49% 30.33 in 10.0 mi SE 5.8 mph - N/A   Clear
5:55 AM 41.0 °F 36.4 °F 23.0 °F 49% 30.32 in 10.0 mi SE 6.9 mph - N/A   Clear
6:15 AM 39.2 °F 33.6 °F 23.0 °F 52% 30.33 in 10.0 mi ESE 8.1 mph - N/A   Clear
6:35 AM 39.2 °F 35.0 °F 23.0 °F 52% 30.33 in 10.0 mi ESE 5.8 mph - N/A   Clear
6:55 AM 39.2 °F 33.6 °F 23.0 °F 52% 30.33 in 10.0 mi ESE 8.1 mph - N/A   Clear
7:35 AM 39.2 °F 35.9 °F 23.0 °F 52% 30.33 in 10.0 mi ESE 4.6 mph - N/A   Clear
7:55 AM 41.0 °F 36.4 °F 23.0 °F 49% 30.33 in 10.0 mi SE 6.9 mph - N/A   Clear
8:15 AM 41.0 °F 36.4 °F 23.0 °F 49% 30.34 in 10.0 mi ESE 6.9 mph - N/A   Clear
8:35 AM 42.8 °F 40.1 °F 24.8 °F 49% 30.35 in 10.0 mi ESE 4.6 mph - N/A   Clear
8:55 AM 44.6 °F - 24.8 °F 46% 30.35 in 10.0 mi Calm Calm - N/A   Clear
9:15 AM 46.4 °F - 24.8 °F 43% 30.35 in 10.0 mi Calm Calm - N/A   Clear
9:35 AM 50.0 °F - 24.8 °F 37% 30.35 in 10.0 mi ESE 4.6 mph - N/A   Clear
9:55 AM 51.8 °F - 23.0 °F 33% 30.35 in 10.0 mi Calm Calm - N/A   Clear
10:15 AM 53.6 °F - 24.8 °F 33% 30.35 in 10.0 mi Calm Calm - N/A   Clear
10:55 AM 55.4 °F - 26.6 °F 33% 30.35 in 10.0 mi Calm Calm - N/A   Scattered Clouds
11:15 AM 55.4 °F - 26.6 °F 33% 30.34 in 10.0 mi SE 3.5 mph - N/A   Clear
11:35 AM 59.0 °F - 26.6 °F 29% 30.34 in 10.0 mi WSW 4.6 mph - N/A   Mostly Cloudy
11:55 AM 59.0 °F - 26.6 °F 29% 30.33 in 10.0 mi West 6.9 mph - N/A   Overcast
12:15 PM 59.0 °F - 26.6 °F 29% 30.33 in 10.0 mi West 8.1 mph - N/A   Mostly Cloudy
12:35 PM 59.0 °F - 26.6 °F 29% 30.32 in 10.0 mi Calm Calm - N/A   Mostly Cloudy
12:55 PM 59.0 °F - 26.6 °F 29% 30.30 in 10.0 mi WNW 4.6 mph - N/A   Scattered Clouds
1:15 PM 59.0 °F - 26.6 °F 29% 30.29 in 10.0 mi West 5.8 mph - N/A   Scattered Clouds
1:35 PM 60.8 °F - 26.6 °F 27% 30.28 in 10.0 mi Calm Calm - N/A   Scattered Clouds
1:55 PM 60.8 °F - 21.2 °F 22% 30.27 in 10.0 mi SSW 11.5 mph 19.6 mph N/A   Scattered Clouds
2:15 PM 62.6 °F - 21.2 °F 20% 30.26 in 10.0 mi SW 12.7 mph 19.6 mph N/A   Scattered Clouds
2:35 PM 60.8 °F - 23.0 °F 23% 30.25 in 10.0 mi WSW 4.6 mph 17.3 mph N/A   Scattered Clouds
2:55 PM 62.6 °F - 21.2 °F 20% 30.24 in 10.0 mi SW 11.5 mph 18.4 mph N/A   Scattered Clouds
3:15 PM 62.6 °F - 21.2 °F 20% 30.24 in 10.0 mi WSW 12.7 mph 17.3 mph N/A   Clear
3:35 PM 62.6 °F - 21.2 °F 20% 30.24 in 10.0 mi West 11.5 mph 19.6 mph N/A   Clear
3:55 PM 64.4 °F - 21.2 °F 19% 30.23 in 10.0 mi West 9.2 mph - N/A   Clear
4:15 PM 62.6 °F - 23.0 °F 22% 30.23 in 10.0 mi West 6.9 mph - N/A   Scattered Clouds
4:35 PM 62.6 °F - 23.0 °F 22% 30.23 in 10.0 mi WNW 9.2 mph - N/A   Mostly Cloudy
4:55 PM 62.6 °F - 23.0 °F 22% 30.22 in 10.0 mi West 12.7 mph 19.6 mph N/A   Scattered Clouds
5:15 PM 60.8 °F - 23.0 °F 23% 30.23 in 10.0 mi West 11.5 mph 17.3 mph N/A   Clear
5:35 PM 60.8 °F - 23.0 °F 23% 30.23 in 10.0 mi West 10.4 mph 18.4 mph N/A   Clear
5:55 PM 60.8 °F - 23.0 °F 23% 30.23 in 10.0 mi WSW 10.4 mph 18.4 mph N/A   Clear
6:15 PM 60.8 °F - 23.0 °F 23% 30.23 in 10.0 mi WSW 9.2 mph 16.1 mph N/A   Clear
6:35 PM 59.0 °F - 23.0 °F 25% 30.24 in 10.0 mi WSW 10.4 mph 17.3 mph N/A   Clear
6:55 PM 57.2 °F - 23.0 °F 27% 30.24 in 10.0 mi WSW 5.8 mph - N/A   Clear
7:15 PM 55.4 °F - 23.0 °F 29% 30.25 in 10.0 mi East 3.5 mph - N/A   Clear
7:35 PM 55.4 °F - 23.0 °F 29% 30.26 in 10.0 mi Calm Calm - N/A   Clear
7:55 PM 53.6 °F - 23.0 °F 30% 30.27 in 10.0 mi Calm Calm - N/A   Clear
8:15 PM 53.6 °F - 23.0 °F 30% 30.27 in 10.0 mi Calm Calm - N/A   Clear
8:35 PM 51.8 °F - 23.0 °F 33% 30.27 in 10.0 mi Calm Calm - N/A   Clear
8:55 PM 51.8 °F - 21.2 °F 30% 30.28 in 10.0 mi Calm Calm - N/A   Clear
9:15 PM 51.8 °F - 21.2 °F 30% 30.28 in 10.0 mi Calm Calm - N/A   Clear
9:35 PM 50.0 °F - 21.2 °F 32% 30.28 in 10.0 mi NNE 3.5 mph - N/A   Clear
9:55 PM 50.0 °F - 21.2 °F 32% 30.29 in 10.0 mi Calm Calm - N/A   Clear
10:15 PM 50.0 °F - 19.4 °F 30% 30.29 in 10.0 mi Calm Calm - N/A   Clear
10:35 PM 50.0 °F - 19.4 °F 30% 30.29 in 10.0 mi Calm Calm - N/A   Clear
10:55 PM 48.2 °F - 19.4 °F 32% 30.29 in 10.0 mi ESE 9.2 mph - N/A   Clear
11:15 PM 46.4 °F 42.4 °F 19.4 °F 34% 30.28 in 10.0 mi East 8.1 mph - N/A   Clear
11:35 PM 46.4 °F 43.5 °F 19.4 °F 34% 30.28 in 10.0 mi SE 5.8 mph - N/A   Clear
11:55 PM 46.4 °F 43.5 °F 19.4 °F 34% 30.28 in 10.0 mi ESE 5.8 mph - N/A   Clear